Home   Weather   Campos   Past weeks
Flag for Brazil

Past Weather in Campos, Rio de Janeiro, Brazil — Yesterday and Last 2 Weeks

Now
61 °F

Partly sunny.


Feels Like: 61 °F
Forecast: 70 / 61 °F
Wind: 6 mph from North

Location: Rio De Janeiro Airport

Current Time: Jul 19, 2019 at 7:47:38 am

Latest Report: Jul 19, 2019 at 7:00 am


Visibility: N/A

Pressure: 30.33 "Hg

Humidity: 100%

Dew Point: 61 °F

Location of CamposLocation

Past Weather in Campos — Graph

°F

Campos Temperature Yesterday

Maximum temperature yesterday: 75 °F (at 2:00 pm)
Minimum temperature yesterday: 63 °F (at 5:00 am)
Average temperature yesterday: 68 °F

High & Low Weather Summary for the Past Weeks

 TemperatureHumidityPressure
High82 °F (Jul 13, 3:00 pm)100% (Jul 4, 6:00 am)30.36 "Hg (Jul 4, 6:00 am)
Low61 °F (Jul 7, 6:00 am)32% (Jul 7, 1:00 am)29.80 "Hg (Jul 4, 6:00 am)
Average70 °F78%30.11 "Hg
* Reported Jul 4 6:00 am — Jul 19 6:00 am, Campos. Weather by CustomWeather, © 2019

Note: Actual official high and low records may vary slightly from our data, if they occured in-between our weather recording intervals... More about our weather records

Advertising

Campos Weather History for the Previous 24 Hours

Scroll right to see more
 ConditionsComfort  
Time TempWeatherWind HumidityBarometerVisibility
6:00 am
Fri, Jul 19
61 °FClear.7 mph94%30.30 "Hg10 mi
5:00 am63 °FClear.7 mph83%30.30 "Hg10 mi
4:00 am64 °FClear.6 mph78%30.30 "Hg10 mi
3:00 am63 °FClear.5 mph83%30.30 "Hg10 mi
2:00 am63 °FClear.3 mph83%30.30 "Hg10 mi
1:00 am64 °FClear.2 mph78%30.33 "Hg10 mi
12:00 am64 °FClear.1 mph73%30.33 "Hg10 mi
11:00 pm
Thu, Jul 18
66 °FClear.2 mph68%30.33 "Hg10 mi
10:00 pm66 °FClear.3 mph73%30.33 "Hg10 mi
9:00 pm66 °FClear.3 mph73%30.33 "Hg10 mi
8:00 pm68 °FPassing clouds.7 mph73%30.33 "HgN/A
7:00 pm68 °FPassing clouds.8 mph73%30.30 "HgN/A
6:00 pm70 °FPassing clouds.10 mph69%30.30 "HgN/A
5:00 pm70 °FPassing clouds.12 mph78%30.30 "HgN/A
4:00 pm72 °FBroken clouds.12 mph73%30.27 "HgN/A
3:00 pm73 °FPartly sunny.9 mph65%30.30 "HgN/A
2:00 pm75 °FPartly sunny.9 mph69%30.30 "HgN/A
1:15 pm73 °FBroken clouds.5 mph65%30.30 "HgN/A
1:00 pm72 °FBroken clouds.3 mph69%30.30 "HgN/A
12:00 pm72 °FBroken clouds.8 mph69%30.33 "HgN/A
11:00 am70 °FBroken clouds.8 mph73%30.36 "HgN/A
10:00 am68 °FBroken clouds.9 mph83%30.36 "HgN/A
9:00 am68 °FBroken clouds.10 mph78%30.36 "HgN/A
8:25 am68 °FBroken clouds.3 mph78%30.33 "HgN/A
8:00 am64 °FBroken clouds.2 mph88%30.33 "HgN/A
7:00 am64 °FBroken clouds.8 mph88%30.30 "HgN/A
Weather by CustomWeather, © 2019

See weather overview